Location: Tucson
(32.2217°N, 110.9265°W)
Time: 07:11:00
(UTC-07:00)

Tiros 1 - Pass Details

Date: 29 October 2021
Orbit: 629 x 664 km, 48.4° (Epoch: 26 November)

Event Time Altitude Azimuth Distance (km) Brightness Sun altitude
Rises 12:20:07 0° 317° (NW) 2,976 10.3 44.0°
Reaches altitude 10° 12:23:41 10° 344° (NNW) 2,056 9.4 43.9°
Maximum altitude 12:26:01 13° 14° (NNE) 1,826 9.2 43.8°
Drops below altitude 10° 12:28:21 10° 44° (NE) 2,044 9.5 43.8°
Sets 12:31:52 0° 71° (ENE) 2,943 10.3 43.7°
